Weather History for Oxford, CT

Change the Weather History Date:

Tuesday, December 4, 2012

  Actual Average Record
Temperature  
Mean Temperature 43 °F -  
Max Temperature 53 °F 40 °F 68 °F (1998)
Min Temperature 33 °F 26 °F 10 °F (2000)
Degree Days  
Heating Degree Days 22    
Moisture  
Dew Point 42 °F    
Average Humidity 92    
Maximum Humidity 100    
Minimum Humidity 81    
Precipitation  
Precipitation 0.00 in - - ()
Sea Level Pressure  
Sea Level Pressure 30.22 in    
Wind  
Wind Speed 4 mph (South)    
Max Wind Speed 13 mph    
Max Gust Speed 17 mph    
Visibility 4 miles    
Events Fog , Rain    
Averages and records for this station are not official NWS values.
T = Trace of Precipitation, MM = Missing Value Source: NWS Daily Summary

Daily Weather History Graph

Daily Weather History Graph

Search for Another Location

Airport:

Trip Planner

Search our weather history database for the weather conditions in past years. The results will help you decide how hot, cold, wet, or windy it might be!

Date:

Astronomy

Dec. 04, 2012 Rise Set
Actual Time 7:02 AM EST 4:22 PM EST
Civil Twilight 6:31 AM EST 4:53 PM EST
Nautical Twilight 5:57 AM EST 5:28 PM EST
Astronomical Twilight 5:23 AM EST 6:01 PM EST
Moon 10:10 PM EST (12/4) 10:53 AM EST (12/4)
Length of Visible Light 10h 22m
Length of Day
9h 19m
Waning Gibbous, 69% of the Moon is Illuminated
Dec 4
Waning Gibbous
Dec 6
Last Quarter
Dec 13
New
Dec 20
First Quarter
Dec 28
Full

Hourly Weather History & Observations

Time (EST) Temp. Windchill Dew Point Humidity Pressure Visibility Wind Dir Wind Speed Gust Speed Precip Events Conditions
12:15 AM 35.6 °F 32.8 °F 32.0 °F 87% 30.29 in 10.0 mi NNE 3.5 mph - N/A   Clear
12:35 AM 33.8 °F - 30.2 °F 87% 30.29 in 10.0 mi Calm Calm - N/A   Clear
12:55 AM 37.4 °F 33.8 °F 33.8 °F 87% 30.29 in 10.0 mi East 4.6 mph - N/A   Clear
1:15 AM 35.6 °F - 33.8 °F 93% 30.29 in 10.0 mi Calm Calm - N/A   Clear
1:35 AM 35.6 °F - 33.8 °F 93% 30.30 in 5.0 mi Calm Calm - N/A   Clear
1:55 AM 35.6 °F - 33.8 °F 93% 30.30 in 7.0 mi Calm Calm - N/A   Clear
2:15 AM 35.6 °F 32.8 °F 33.8 °F 93% 30.30 in 3.0 mi ESE 3.5 mph - N/A   Clear
2:35 AM 35.6 °F - 33.8 °F 93% 30.31 in 5.0 mi Calm Calm - N/A   Partly Cloudy
2:55 AM 35.6 °F - 32.0 °F 87% 30.31 in 4.0 mi Calm Calm - N/A   Scattered Clouds
3:15 AM 33.8 °F - 32.0 °F 93% 30.30 in 5.0 mi Calm Calm - N/A   Mostly Cloudy
3:55 AM 33.8 °F - 32.0 °F 93% 30.30 in 5.0 mi Calm Calm - N/A   Scattered Clouds
4:15 AM 35.6 °F 30.7 °F 33.8 °F 93% 30.29 in 4.0 mi East 5.8 mph - N/A   Mostly Cloudy
4:35 AM 35.6 °F 32.8 °F 33.8 °F 93% 30.29 in 10.0 mi East 3.5 mph - N/A   Mostly Cloudy
4:55 AM 37.4 °F - 33.8 °F 87% 30.29 in 9.0 mi Calm Calm - N/A   Overcast
5:15 AM 39.2 °F - 35.6 °F 87% 30.30 in 9.0 mi Calm Calm - N/A   Overcast
5:35 AM 37.4 °F - 35.6 °F 93% 30.29 in 5.0 mi Calm Calm - N/A   Overcast
5:45 AM 39.2 °F - 35.6 °F 87% 30.29 in 6.0 mi Calm Calm - N/A   Overcast
6:45 AM 39.2 °F 37.0 °F 35.6 °F 87% 30.30 in 10.0 mi East 3.5 mph - N/A   Overcast
7:22 AM 39.2 °F 35.0 °F 35.6 °F 87% 30.30 in 4.0 mi ESE 5.8 mph - N/A   Light Drizzle
7:45 AM 42.8 °F 40.1 °F 37.4 °F 81% 30.30 in 4.0 mi SE 4.6 mph - N/A   Light Drizzle
8:04 AM 42.8 °F 39.3 °F 39.2 °F 87% 30.30 in 4.0 mi SSE 5.8 mph - N/A   Light Drizzle
8:23 AM 42.8 °F 40.1 °F 39.2 °F 87% 30.30 in 4.0 mi South 4.6 mph - N/A   Light Drizzle
9:07 AM 44.6 °F 40.2 °F 41.0 °F 87% 30.30 in 1.5 mi South 8.1 mph - N/A   Light Drizzle
9:45 AM 44.6 °F 40.7 °F 41.0 °F 87% 30.30 in 0.8 mi SSE 6.9 mph - N/A Rain Light Rain
10:12 AM 44.6 °F 40.7 °F 42.8 °F 93% 30.29 in 0.2 mi South 6.9 mph - N/A Fog , Rain Light Rain
10:45 AM 44.6 °F 40.7 °F 42.8 °F 93% 30.28 in 0.1 mi South 6.9 mph - N/A Fog , Rain Light Rain
11:45 AM 48.2 °F - 46.4 °F 93% 30.25 in 0.1 mi South 9.2 mph - N/A Fog Drizzle
12:45 PM 50.0 °F - 48.2 °F 94% 30.23 in 0.1 mi South 9.2 mph - N/A Fog Fog
1:45 PM 51.8 °F - 50.0 °F 94% 30.20 in 0.1 mi South 9.2 mph - N/A Fog Fog
2:45 PM 51.8 °F - 51.8 °F 100% 30.19 in 0.1 mi South 4.6 mph - N/A Fog Fog
3:25 PM 53.6 °F - 51.8 °F 94% 30.18 in 1.0 mi South 8.1 mph - N/A   Overcast
4:45 PM 53.6 °F - 51.8 °F 94% 30.16 in 2.0 mi South 10.4 mph 16.1 mph N/A   Overcast
5:45 PM 53.6 °F - 51.8 °F 94% 30.15 in 3.0 mi South 11.5 mph 17.3 mph N/A   Overcast
6:45 PM 53.6 °F - 51.8 °F 94% 30.13 in 1.0 mi SSW 10.4 mph - N/A   Overcast
7:17 PM 53.6 °F - 51.8 °F 94% 30.12 in 0.5 mi SSW 8.1 mph 15.0 mph N/A Fog Fog
7:45 PM 53.6 °F - 51.8 °F 94% 30.10 in 0.2 mi South 12.7 mph - N/A Fog Fog
8:45 PM 53.6 °F - 51.8 °F 94% 30.08 in 0.2 mi SSW 8.1 mph - N/A Fog Fog
8:55 PM 53.6 °F - 51.8 °F 94% 30.08 in 0.2 mi South 8.1 mph - N/A   Overcast
9:15 PM 53.6 °F - 51.8 °F 94% 30.08 in 0.2 mi South 10.4 mph 16.1 mph N/A   Overcast
9:35 PM 53.6 °F - 51.8 °F 94% 30.08 in 0.8 mi South 6.9 mph - N/A   Overcast
9:55 PM 53.6 °F - 51.8 °F 94% 30.06 in 1.0 mi South 9.2 mph - N/A   Overcast
10:15 PM 53.6 °F - 51.8 °F 94% 30.06 in 2.0 mi South 9.2 mph - N/A   Overcast
10:35 PM 53.6 °F - 51.8 °F 94% 30.05 in 2.5 mi SSW 8.1 mph - N/A   Overcast
11:15 PM 51.8 °F - 50.0 °F 94% 30.03 in 3.0 mi SSW 8.1 mph - N/A   Mostly Cloudy
11:35 PM 51.8 °F - 50.0 °F 94% 30.02 in 3.0 mi SSW 6.9 mph - N/A   Scattered Clouds
11:55 PM 51.8 °F - 50.0 °F 94% 30.00 in 4.0 mi SSW 8.1 mph - N/A   Scattered Clouds